Location: Cheyres
(46.8153°N, 6.7877°E)
Time: 04:57:15
(UTC+00:00)

NANOSAT C BR1 - Visible Passes

Search period start: 26 June 2022 00:00
Search period end: 06 July 2022 00:00
Orbit: 583 x 601 km, 98.0° (Epoch: 25 June)

Date Brightness Start Highest point End Pass type
(mag) Time Alt. Az. Time Alt. Az. Time Alt. Az.
26 Jun ? 00:30:58 10° ENE 00:33:10 14° E 00:35:20 10° ESE visible
26 Jun ? 02:04:57 10° N 02:09:06 62° WNW 02:12:18 16° SSW visible
27 Jun ? 00:39:14 10° NE 00:42:00 17° E 00:44:32 11° SE visible
27 Jun ? 02:13:45 10° N 02:17:48 50° WNW 02:21:08 15° SW visible
28 Jun ? 00:47:39 10° NE 00:50:48 20° E 00:53:22 13° SE visible
28 Jun ? 02:22:34 10° N 02:26:32 41° WNW 02:29:57 13° SW visible
29 Jun ? 00:56:08 10° NE 00:59:37 25° E 01:02:11 15° SE visible
29 Jun ? 02:31:25 10° N 02:35:13 34° WNW 02:38:46 11° SW visible
30 Jun ? 01:04:40 10° NNE 01:08:24 30° E 01:11:00 16° SSE visible
30 Jun ? 02:40:17 10° N 02:43:53 28° WNW 02:47:29 10° SW visible
01 Jul ? 01:13:15 10° NNE 01:17:11 37° E 01:19:48 18° SSE visible
01 Jul ? 02:49:10 10° NNW 02:52:32 24° WNW 02:55:54 10° WSW visible
02 Jul ? 01:21:53 10° NNE 01:25:56 45° E 01:28:36 20° SSE visible
02 Jul ? 02:58:07 10° NNW 03:01:11 20° WNW 03:04:14 10° WSW visible
03 Jul ? 01:30:31 10° NNE 01:34:40 56° E 01:37:23 21° S visible
04 Jul ? 01:39:11 10° NNE 01:43:25 70° ESE 01:46:10 21° S visible
05 Jul ? 01:47:52 10° NNE 01:52:07 86° ESE 01:54:57 21° SSW visible
